Princeton, MN

10:58 PM CST on December 07, 2016 (GMT -0600)
Princeton Municipal

Weather History for KPNM - February, 2014

Change the Weather History Date:

Monday, February 17, 2014

  Actual Average Record
Temperature  
Mean Temperature 19 °F -  
Max Temperature 28 °F 27 °F 42 °F (2002)
Min Temperature 10 °F 10 °F -14 °F (2001)
Degree Days  
Heating Degree Days 46    
Moisture  
Dew Point 16 °F    
Average Humidity 80    
Maximum Humidity 93    
Minimum Humidity 63    
Precipitation  
Precipitation 0.03 in - - ()
Sea Level Pressure  
Sea Level Pressure 29.73 in    
Wind  
Wind Speed 10 mph (SSE)    
Max Wind Speed 24 mph    
Max Gust Speed 32 mph    
Visibility 4 miles    
Events Fog , Snow    
Averages and records for this station are not official NWS values.
T = Trace of Precipitation, MM = Missing Value Source: NWS Daily Summary

Daily Weather History Graph

Daily Weather History Graph

Search for Another Location

Airport or City:

Trip Planner

Search our weather history database for the weather conditions in past years. The results will help you decide how hot, cold, wet, or windy it might be!

Date:

Astronomy

Feb. 17, 2014 Rise Set
Actual Time 7:13 AM CST 5:44 PM CST
Civil Twilight 6:42 AM CST 6:14 PM CST
Nautical Twilight 6:08 AM CST 6:49 PM CST
Astronomical Twilight 5:33 AM CST 7:23 PM CST
Moon 8:50 PM CST (2/17) 8:04 AM CST (2/17)
Length of Visible Light 11h 32m
Length of Day
10h 31m
Waning Gibbous, 93% of the Moon is Illuminated
Feb 17
Waning Gibbous
Feb 22
Last Quarter
Mar 1
New
Mar 8
First Quarter
Mar 16
Full

Hourly Weather History & Observations

Time (CST) Temp. Windchill Dew Point Humidity Pressure Visibility Wind Dir Wind Speed Gust Speed Precip Events Conditions
12:14 AM 23.0 °F 10.6 °F 12.2 °F 63% 29.94 in 10.0 mi SE 13.8 mph 20.7 mph N/A   Overcast
12:33 AM 23.0 °F 10.6 °F 12.2 °F 63% 29.92 in 10.0 mi ESE 13.8 mph 20.7 mph N/A   Overcast
12:53 AM 23.0 °F 10.1 °F 12.2 °F 63% 29.91 in 10.0 mi ESE 15.0 mph 21.9 mph N/A   Overcast
1:14 AM 23.0 °F 10.1 °F 12.2 °F 63% 29.91 in 10.0 mi ESE 15.0 mph 20.7 mph N/A   Overcast
1:33 AM 23.0 °F 10.1 °F 12.2 °F 63% 29.89 in 10.0 mi SE 15.0 mph 23.0 mph N/A   Overcast
1:53 AM 23.0 °F 9.2 °F 12.2 °F 63% 29.87 in 10.0 mi ESE 17.3 mph 26.5 mph N/A   Overcast
2:12 AM 23.0 °F 8.7 °F 12.2 °F 63% 29.85 in 10.0 mi ESE 18.4 mph 26.5 mph N/A   Overcast
2:33 AM 23.0 °F 6.9 °F 12.2 °F 63% 29.82 in 7.0 mi SE 24.2 mph 32.2 mph N/A   Overcast
2:53 AM 23.0 °F 7.2 °F 12.2 °F 63% 29.81 in 10.0 mi ESE 23.0 mph 31.1 mph N/A   Overcast
3:13 AM 23.0 °F 8.3 °F 12.2 °F 63% 29.80 in 10.0 mi SE 19.6 mph 26.5 mph N/A   Overcast
3:33 AM 23.0 °F 9.2 °F 12.2 °F 63% 29.81 in 10.0 mi SE 17.3 mph 21.9 mph N/A   Overcast
3:53 AM 23.0 °F 11.7 °F 12.2 °F 63% 29.80 in 10.0 mi SE 11.5 mph 19.6 mph N/A   Overcast
4:13 AM 23.0 °F 8.7 °F 14.0 °F 68% 29.79 in 10.0 mi SE 18.4 mph 25.3 mph N/A   Overcast
4:33 AM 21.2 °F 6.8 °F 15.8 °F 80% 29.79 in 7.0 mi SE 17.3 mph 24.2 mph N/A Snow Light Snow
4:54 AM 21.2 °F 9.5 °F 15.8 °F 80% 29.77 in 7.0 mi SE 11.5 mph - N/A   Overcast
5:13 AM 21.2 °F 6.0 °F 15.8 °F 80% 29.76 in 10.0 mi SE 19.6 mph 25.3 mph N/A   Overcast
5:33 AM 21.2 °F 8.3 °F 15.8 °F 80% 29.76 in 10.0 mi SE 13.8 mph - N/A   Overcast
5:53 AM 21.2 °F 8.9 °F 17.6 °F 86% 29.75 in 2.5 mi SE 12.7 mph 18.4 mph N/A Snow Light Snow
6:13 AM 21.2 °F 10.9 °F 17.6 °F 86% 29.74 in 2.5 mi SE 9.2 mph - N/A Snow Light Snow
6:33 AM 21.2 °F 9.5 °F 17.6 °F 86% 29.73 in 2.5 mi SE 11.5 mph 17.3 mph N/A Snow Light Snow
6:54 AM 21.2 °F 8.9 °F 17.6 °F 86% 29.72 in 1.8 mi SE 12.7 mph 18.4 mph N/A Snow Light Snow
7:13 AM 19.4 °F 7.9 °F 17.6 °F 93% 29.71 in 1.2 mi SE 10.4 mph - N/A Snow Light Snow
7:33 AM 21.2 °F 10.9 °F 17.6 °F 86% 29.71 in 1.0 mi ESE 9.2 mph - N/A Snow Snow
7:54 AM 21.2 °F 11.7 °F 17.6 °F 86% 29.71 in 0.5 mi SE 8.1 mph - N/A Snow Light Snow
8:13 AM 21.2 °F 11.7 °F 17.6 °F 86% 29.71 in 1.0 mi SE 8.1 mph - N/A Snow Light Snow
8:34 AM 21.2 °F 10.9 °F 17.6 °F 86% 29.70 in 1.5 mi SE 9.2 mph - N/A Snow Light Snow
8:53 AM 21.2 °F 10.9 °F 17.6 °F 86% 29.70 in 1.8 mi SE 9.2 mph - N/A Snow Light Snow
9:13 AM 21.2 °F 11.7 °F 17.6 °F 86% 29.70 in 1.5 mi SE 8.1 mph - N/A Snow Light Snow
9:34 AM 21.2 °F 11.7 °F 17.6 °F 86% 29.69 in 1.8 mi SE 8.1 mph - N/A Snow Light Snow
9:53 AM 21.2 °F 12.6 °F 19.4 °F 93% 29.68 in 2.0 mi SE 6.9 mph - N/A Snow Light Snow
10:13 AM 23.0 °F 15.8 °F 19.4 °F 86% 29.68 in 1.8 mi SE 5.8 mph - N/A Snow Light Snow
10:34 AM 24.8 °F 16.9 °F 19.4 °F 80% 29.67 in 1.8 mi SE 6.9 mph - N/A Snow Light Snow
10:53 AM 24.8 °F 15.3 °F 19.4 °F 80% 29.68 in 2.5 mi SSE 9.2 mph - N/A Snow Light Snow
11:13 AM 24.8 °F 16.9 °F 19.4 °F 80% 29.69 in 1.5 mi SSE 6.9 mph - N/A Snow Light Snow
11:34 AM 24.8 °F 16.9 °F 19.4 °F 80% 29.69 in 1.5 mi South 6.9 mph - N/A Snow Light Snow
11:53 AM 24.8 °F 16.9 °F 19.4 °F 80% 29.68 in 2.5 mi South 6.9 mph - N/A Snow Light Snow
12:13 PM 26.6 °F 21.2 °F 19.4 °F 74% 29.67 in 2.0 mi South 4.6 mph - N/A Snow Light Snow
12:34 PM 26.6 °F 21.2 °F 21.2 °F 80% 29.67 in 2.0 mi South 4.6 mph - N/A Snow Light Snow
12:53 PM 26.6 °F 21.2 °F 19.4 °F 74% 29.65 in 4.0 mi SSW 4.6 mph - N/A Snow Light Snow
1:13 PM 26.6 °F - 19.4 °F 74% 29.66 in 4.0 mi Calm Calm - N/A   Scattered Clouds
1:34 PM 26.6 °F - 21.2 °F 80% 29.66 in 2.0 mi Calm Calm - N/A Snow Light Snow
1:53 PM 26.6 °F - 21.2 °F 80% 29.66 in 2.0 mi Calm Calm - N/A Snow Light Snow
2:13 PM 26.6 °F - 21.2 °F 80% 29.66 in 1.2 mi Calm Calm - 0.01 in Snow Light Snow
2:34 PM 26.6 °F 21.2 °F 21.2 °F 80% 29.67 in 3.0 mi West 4.6 mph - 0.01 in Snow Light Snow
2:53 PM 26.6 °F 20.0 °F 21.2 °F 80% 29.67 in 5.0 mi West 5.8 mph - 0.01 in Snow Light Snow
3:13 PM 26.6 °F 22.6 °F 21.2 °F 80% 29.67 in 5.0 mi West 3.5 mph - 0.01 in   Scattered Clouds
3:34 PM 26.6 °F 20.0 °F 19.4 °F 74% 29.68 in 7.0 mi West 5.8 mph - 0.01 in   Scattered Clouds
3:53 PM 28.4 °F 20.4 °F 21.2 °F 74% 29.70 in 7.0 mi West 8.1 mph - 0.02 in   Scattered Clouds
4:13 PM 28.4 °F 22.2 °F 19.4 °F 69% 29.69 in 7.0 mi West 5.8 mph - N/A   Scattered Clouds
4:34 PM 26.6 °F 21.2 °F 19.4 °F 74% 29.70 in 7.0 mi West 4.6 mph - N/A   Mostly Cloudy
4:53 PM 26.6 °F 21.2 °F 21.2 °F 80% 29.70 in 7.0 mi West 4.6 mph - N/A   Mostly Cloudy
5:13 PM 26.6 °F 22.6 °F 19.4 °F 74% 29.71 in 7.0 mi West 3.5 mph - N/A   Overcast
5:34 PM 26.6 °F - 21.2 °F 80% 29.71 in 7.0 mi Calm Calm - N/A   Overcast
5:53 PM 24.8 °F - 19.4 °F 80% 29.72 in 7.0 mi Calm Calm - N/A   Overcast
6:13 PM 21.2 °F - 17.6 °F 86% 29.72 in 7.0 mi Calm Calm - N/A   Scattered Clouds
6:34 PM 21.2 °F - 17.6 °F 86% 29.72 in 5.0 mi Calm Calm - N/A   Clear
6:53 PM 17.6 °F - 15.8 °F 93% 29.72 in 3.0 mi Calm Calm - N/A   Clear
7:13 PM 17.6 °F - 15.8 °F 93% 29.73 in 1.5 mi Calm Calm - N/A   Clear
7:33 PM 14.0 °F - 12.2 °F 93% 29.72 in 0.5 mi Calm Calm - N/A Fog Light Freezing Fog
7:53 PM 10.4 °F - 8.6 °F 92% 29.72 in 0.2 mi Calm Calm - N/A Fog Light Freezing Fog
8:13 PM 10.4 °F - 6.8 °F 85% 29.72 in 0.5 mi Calm Calm - N/A Fog Light Freezing Fog
8:33 PM 12.2 °F - 8.6 °F 85% 29.72 in 1.2 mi Calm Calm - N/A   Mostly Cloudy
8:53 PM 10.4 °F - 6.8 °F 85% 29.72 in 2.0 mi Calm Calm - N/A   Clear
9:13 PM 10.4 °F - 8.6 °F 92% 29.72 in 2.0 mi Calm Calm - N/A   Clear
9:33 PM 12.2 °F - 8.6 °F 85% 29.72 in 2.0 mi Calm Calm - N/A   Clear
9:53 PM 10.4 °F - 8.6 °F 92% 29.72 in 2.0 mi Calm Calm - N/A   Clear
10:13 PM 12.2 °F 6.1 °F 8.6 °F 85% 29.71 in 2.0 mi SSE 3.5 mph - N/A   Clear
10:33 PM 12.2 °F - 8.6 °F 85% 29.72 in 2.0 mi Calm Calm - N/A   Clear
10:53 PM 12.2 °F - 10.4 °F 92% 29.71 in 1.5 mi Calm Calm - N/A   Clear
11:13 PM 15.8 °F 8.6 °F 12.2 °F 86% 29.71 in 3.0 mi SE 4.6 mph - N/A   Clear
11:33 PM 15.8 °F - 14.0 °F 93% 29.71 in 3.0 mi Calm Calm - N/A   Mostly Cloudy
11:53 PM 17.6 °F 12.3 °F 15.8 °F 93% 29.71 in 4.0 mi SE 3.5 mph - N/A   Mostly Cloudy